Regional Weather Roundup
Issued by NWS

Home | Current Version | Previous Version | Graphics & Text | Print | Product List | Glossary On
Versions: 1 2 3 4 5 6 7 8 9 10 11 12 13 14 15 16 17 18 19 20 21 22 23 24 25 26 27 28 29 30 31 32 33 34 35 36 37 38 39 40 41 42 43 44 45 46 47 48 49 50
000
ASUS43 KLSX 210307
RWRMO

WEATHER SUMMARY FOR MISSOURI
NATIONAL WEATHER SERVICE SPRINGFIELD MO
1000 PM CDT SUN AUG 20 2017

NOTE: "FAIR" INDICATES FEW OR NO CLOUDS BELOW 12,000 FEET WITH NO
       SIGNIFICANT WEATHER AND/OR OBSTRUCTIONS TO VISIBILITY.
       CURRENT SKY AND/OR WEATHER CONDITIONS ARE NOT AVAILABLE FOR
       CHILLICOTHE AND FARMINGTON.

MOZ001>031-035>038-043-044-053-054-210400-
...NORTHERN AND WESTERN MISSOURI...

CITY           SKY/WX    TMP DP  RH WIND       PRES   REMARKS
KANSAS CTY INT MOCLDY    82  75  79 S13       30.01R
KANSAS C DTWN  PTCLDY    84  70  62 S10       30.00R
LEE`S SUMMIT   MOCLDY    78  69  73 S10       30.03R
ST JOSEPH      CLOUDY    80  75  84 S9        29.99R
CHILLICOTHE      N/A     76  69  79 SE3       30.03R
KIRKSVILLE     PTCLDY    69  66  90 SE5       30.05R

$$
MOZ066>068-077>081-088>096-101>105-210400-
...SOUTHWEST MISSOURI...

CITY           SKY/WX    TMP DP  RH WIND       PRES   REMARKS
SPRINGFIELD    RAIN      73  69  87 E9        30.10F FOG
JOPLIN         CLOUDY    80  71  74 E12G20    30.08R
BRANSON        CLOUDY    77  72  83 E6        30.12R

$$
MOZ032>034-039>042-045>050-055>058-069>072-210400-
...CENTRAL MISSOURI...

CITY           SKY/WX    TMP DP  RH WIND       PRES   REMARKS
COLUMBIA       PTCLDY    80  73  79 SW10      30.04R
JEFFERSON CITY CLOUDY    83  75  77 SW5       30.02R HX  90
ROLLA          MOCLDY    78  71  79 S6        30.07R
SEDALIA        MOCLDY    77  65  66 S13       30.03F
WHITEMAN AFB   MOCLDY    73  69  86 SW12      30.02S
WARRENSBURG    CLOUDY    72  64  78 S8        30.03R
OSAGE BEACH    CLOUDY    78  69  73 CALM      30.05F

$$
MOZ051-052-059>065-210400-
...EAST CENTRAL MISSOURI...

CITY           SKY/WX    TMP DP  RH WIND       PRES   REMARKS
ST LOUIS INTL  CLOUDY    81  72  74 NW7       30.05R
SPIRIT OF STL  CLOUDY    77  73  87 S3        30.03R
ST CHARLES     PTCLDY    79  73  82 W5        30.03R

$$
MOZ072>076-082>087-097>100-106>115-210400-
...SOUTH CENTRAL AND SOUTHEAST MISSOURI...

CITY           SKY/WX    TMP DP  RH WIND       PRES   REMARKS
CAPE GIRARDEAU PTCLDY    71  68  90 CALM      30.07R
FARMINGTON     CLOUDY    75  72  90 S10       30.07F
POPLAR BLUFF   CLOUDY    76  75  97 CALM      30.07R
WEST PLAINS    MOCLDY    76  73  91 CALM      30.12R

$$



USA.gov is the U.S. government's official web portal to all federal, state and local government web resources and services.